Waarnemingen

Advertentie
Mijn weer
Carcassonne, Frankrijk (7635): temperatuur & dauwpunt: 19.02.2018 20:00:00 - 25.02.2018 20:00:00 (CET)Carcassonne, Frankrijk (7635): temperatuur 5cm: 19.02.2018 20:00:00 - 25.02.2018 20:00:00 (CET)Carcassonne, Frankrijk (7635): temperatuur -20cm & temperatuur -100cm: 19.02.2018 20:00:00 - 25.02.2018 20:00:00 (CET)Carcassonne, Frankrijk (7635): windsnelheid & windstoten: 19.02.2018 20:00:00 - 25.02.2018 20:00:00 (CET)Carcassonne, Frankrijk (7635): windrichting: 19.02.2018 20:00:00 - 25.02.2018 20:00:00 (CET)Carcassonne, Frankrijk (7635): luchtdruk: 19.02.2018 20:00:00 - 25.02.2018 20:00:00 (CET)Carcassonne, Frankrijk (7635): zicht: 19.02.2018 20:00:00 - 25.02.2018 20:00:00 (CET)Carcassonne, Frankrijk (7635): Zonneschijnduur: 19.02.2018 20:00:00 - 25.02.2018 20:00:00 (CET)Carcassonne, Frankrijk (7635): neerslag: 19.02.2018 20:00:00 - 25.02.2018 20:00:00 (CET)
Datum & Tijd tt [°C] td [°C] tt 5cm [°C] tt -20cm [°C] tt -100cm [°C] ff [km/u] ff [kn] fx [km/u] fx [kn] dd ppp [hPa] vv [km] sd [min] rr [mm]
25.02.2018 20:00:00 5,8 0,9 4,9 8,6 9,2 19 10 39 21 WNW 1012,5 7 0 0,0
25.02.2018 19:00:00 6,8 0,9 6,0 8,7 9,2 22 12 44 24 WNW 1011,7 8 3 0,0
25.02.2018 18:00:00 8,3 1,4 8,0 8,7 9,2 26 14 49 26 WNW 1010,7 10 60 0,0
25.02.2018 17:00:00 10,0 1,9 10,8 8,5 9,2 31 17 51 27 NW 1009,7 12 60 0,0
25.02.2018 16:00:00 11,3 1,2 12,8 8,2 9,2 - - 51 27 - 1009,1 11 60 0,0
25.02.2018 15:00:00 11,7 1,6 13,9 7,8 9,2 33 18 51 28 NW 1009,0 10 60 0,0
25.02.2018 14:00:00 11,3 1,8 13,3 7,4 9,2 28 15 45 25 WNW 1009,2 8 60 0,0
25.02.2018 13:00:00 10,0 2,1 12,2 6,9 9,2 27 14 47 25 WNW 1010,3 7 60 0,0
25.02.2018 12:00:00 8,8 1,2 10,7 6,6 9,2 27 14 45 24 WNW 1011,3 4,8 60 0,0
25.02.2018 11:00:00 7,6 -0,1 10,0 6,4 9,2 27 15 42 23 W 1011,8 4,4 60 0,0
25.02.2018 10:00:00 7,3 -0,2 5,9 6,4 9,2 21 12 35 19 W 1011,7 6 44 0,0
25.02.2018 09:00:00 5,4 -0,4 3,3 6,5 9,2 16 8 24 13 W 1011,7 9 31 0,0
25.02.2018 08:00:00 3,9 -0,5 3,1 6,6 9,2 13 7 24 13 WZW 1011,2 8 3 0,0
25.02.2018 07:00:00 4,7 -0,3 4,0 6,6 9,2 12 6 23 12 W 1011,0 8 0 0,0
25.02.2018 06:00:00 5,2 -0,2 4,8 6,7 9,2 13 7 22 12 W 1011,2 8 0 0,0
25.02.2018 05:00:00 5,0 0,0 4,7 6,7 9,3 11 6 21 11 W 1011,2 8 0 0,0
25.02.2018 04:00:00 5,2 0,2 5,0 6,8 9,3 13 7 20 11 W 1011,1 8 0 0,0
25.02.2018 03:00:00 5,7 -0,4 5,4 6,8 9,3 12 7 25 14 W 1011,3 9 0 0,0
25.02.2018 02:00:00 5,7 -0,2 5,4 6,8 9,3 12 7 25 13 W 1011,5 9 0 0,0
25.02.2018 01:00:00 5,6 -0,1 5,4 6,9 9,3 14 8 26 14 W 1011,6 9 0 0,0
25.02.2018 00:00:00 5,8 -0,1 5,5 7,0 9,3 15 8 26 14 W 1011,5 9 0 0,0
24.02.2018 23:00:00 5,8 0,1 5,6 7,0 9,3 13 7 22 12 W 1011,4 8 0 0,0
24.02.2018 22:00:00 6,0 0,1 5,6 7,1 9,4 11 6 23 12 W 1011,3 9 0 0,0
24.02.2018 21:00:00 6,0 0,1 5,6 7,1 9,4 14 8 29 16 WNW 1010,9 9 0 0,0
24.02.2018 20:00:00 6,3 0,0 6,0 7,1 9,4 15 8 26 14 W 1010,6 9 0 0,0
24.02.2018 19:00:00 6,8 0,0 6,5 7,1 9,4 12 7 29 16 W 1010,2 9 0 0,0
24.02.2018 18:00:00 7,3 0,0 7,1 7,0 9,4 14 8 27 15 W 1009,6 9 0 0,0
24.02.2018 17:00:00 7,6 -0,4 7,9 6,8 9,4 14 7 27 15 W 1009,3 11 0 0,0
24.02.2018 16:00:00 8,3 -0,2 9,7 6,4 9,4 14 8 28 15 W 1008,9 11 48 0,0
24.02.2018 15:00:00 7,8 -0,7 9,2 6,0 9,4 19 10 33 18 W 1008,7 10 40 0,0
24.02.2018 14:00:00 6,7 -1,0 7,9 5,7 9,4 19 11 32 18 W 1009,3 10 11 0,0
24.02.2018 13:00:00 6,1 -1,6 6,9 5,4 9,4 23 13 36 19 WNW 1009,5 11 36 0,0
24.02.2018 12:00:00 5,3 -2,5 6,0 5,1 9,5 23 13 36 20 W 1009,9 13 46 0,0
24.02.2018 11:00:00 4,0 -2,4 4,8 5,0 9,5 18 10 33 18 W 1010,1 11 3 0,0
24.02.2018 10:00:00 3,4 -2,8 2,1 5,1 9,4 15 8 26 14 W 1010,0 9 12 0,0
24.02.2018 09:00:00 1,9 -3,2 -2,3 5,2 9,5 12 6 23 12 W 1009,7 11 0 0,0
24.02.2018 08:00:00 -1,4 -3,4 -3,4 5,3 9,5 3 2 11 6 W 1009,7 7 0 0,0
24.02.2018 07:00:00 -1,6 -3,2 -4,3 5,5 9,5 5 3 10 5 W 1009,2 7 0 0,0
24.02.2018 06:00:00 -1,6 -4,0 -5,0 5,6 9,5 4 2 14 8 NW 1009,1 7 0 0,0
24.02.2018 05:00:00 -2,9 -4,8 -5,0 5,8 9,5 0 0 11 6 N 1009,3 4,1 0 0,0
24.02.2018 04:00:00 -1,4 -3,3 -4,3 6,0 9,5 7 4 12 7 W 1009,3 6 0 0,0
24.02.2018 03:00:00 -1,2 -4,2 -3,7 6,2 9,5 4 2 15 8 NW 1009,5 6 0 0,0
24.02.2018 02:00:00 0,9 -3,4 -0,2 6,4 9,5 10 6 19 10 W 1009,6 10 0 0,0
24.02.2018 01:00:00 0,9 -3,2 -1,0 6,5 9,5 11 6 18 10 W 1009,6 10 0 0,0
24.02.2018 00:00:00 1,1 -3,6 -0,7 6,7 9,5 12 6 19 10 WZW 1009,7 10 0 0,0
23.02.2018 23:00:00 1,5 -3,4 0,4 6,9 9,6 9 5 16 9 W 1009,7 11 0 0,0
23.02.2018 22:00:00 1,7 -3,2 0,7 7,1 9,6 10 5 17 9 W 1009,7 11 0 0,0
23.02.2018 21:00:00 2,2 -3,1 1,1 7,3 9,6 10 5 19 11 W 1009,5 11 0 0,0
23.02.2018 20:00:00 2,7 -3,0 1,5 7,4 9,6 10 5 17 9 W 1009,4 11 0 0,0
23.02.2018 19:00:00 3,4 -2,8 2,5 7,5 9,6 13 7 28 15 WNW 1009,2 13 10 0,0
23.02.2018 18:00:00 5,0 -2,6 5,2 7,4 9,6 18 10 32 17 NW 1008,9 14 60 0,0
23.02.2018 17:00:00 5,8 -2,6 5,5 7,3 9,6 22 12 36 19 WNW 1008,6 14 35 0,0
23.02.2018 16:00:00 6,1 -2,3 6,0 7,1 9,6 20 11 39 21 WNW 1008,5 12 33 0,0
23.02.2018 15:00:00 6,4 -2,5 6,6 6,9 9,6 22 12 38 20 WNW 1008,6 13 13 0,0
23.02.2018 14:00:00 5,6 -2,7 6,0 6,6 9,6 23 12 35 19 WNW 1008,9 15 12 0,0
23.02.2018 13:00:00 5,6 -2,7 6,9 6,1 9,6 23 12 41 22 WNW 1009,5 8 34 0,0
23.02.2018 12:00:00 5,6 -2,3 7,9 5,8 9,6 23 13 35 19 WNW 1009,7 12 60 0,0
23.02.2018 11:00:00 4,6 -3,0 6,1 5,7 9,6 21 11 32 17 WNW 1010,0 12 60 0,0
23.02.2018 10:00:00 3,3 -2,5 3,7 5,7 9,7 17 9 26 14 W 1010,2 9 60 0,0
23.02.2018 09:00:00 1,7 -2,8 0,1 5,8 9,7 11 6 20 11 W 1010,2 9 60 0,0
23.02.2018 08:00:00 0,7 -3,2 -0,1 6,0 9,7 13 7 27 15 W 1009,9 9 2 0,0
23.02.2018 07:00:00 0,9 -3,4 0,0 6,1 9,7 14 8 26 14 W 1009,7 10 0 0,0
23.02.2018 06:00:00 0,8 -2,8 -1,3 6,3 9,7 14 8 22 12 W 1009,5 8 0 0,0
23.02.2018 05:00:00 0,4 -3,0 -2,8 6,4 9,7 10 5 16 8 W 1009,6 8 0 0,0
23.02.2018 04:00:00 0,2 -3,2 -1,6 6,6 9,7 8 4 19 10 W 1009,7 7 0 0,0
23.02.2018 03:00:00 1,4 -3,3 0,4 6,8 9,7 12 6 23 12 W 1010,0 9 0 0,0
23.02.2018 02:00:00 1,7 -3,4 0,6 6,9 9,7 11 6 27 14 W 1010,1 10 0 0,0
23.02.2018 01:00:00 2,5 -2,6 1,7 7,0 9,7 15 8 22 12 W 1010,2 9 0 0,0
23.02.2018 00:00:00 3,1 -2,6 2,6 7,1 9,7 15 8 23 12 WNW 1010,2 9 0 0,0
22.02.2018 23:00:00 3,7 -0,9 3,1 7,2 9,7 11 6 33 18 WNW 1009,9 8 0 0,0
22.02.2018 22:00:00 4,4 -1,6 3,9 7,3 9,7 19 10 30 16 W 1009,9 10 0 0,0
22.02.2018 21:00:00 4,4 -1,6 3,6 7,4 9,7 18 10 29 16 W 1010,0 10 0 0,0
22.02.2018 20:00:00 3,9 -1,3 3,3 7,5 9,8 12 7 22 12 WNW 1010,3 8 0 0,0
22.02.2018 19:00:00 3,7 -1,3 3,4 7,5 9,8 16 8 39 21 WNW 1010,2 8 0 0,0
22.02.2018 18:00:00 3,6 -1,6 3,5 7,5 9,8 25 14 40 21 WNW 1010,0 8 0 0,0
22.02.2018 17:00:00 3,7 -1,9 4,0 7,4 9,8 25 14 44 24 WNW 1009,9 8 40 0,0
22.02.2018 16:00:00 4,4 -2,3 4,1 7,2 9,8 27 15 49 26 NW 1009,9 6 34 0,0
22.02.2018 15:00:00 3,5 -2,7 4,5 7,1 9,8 32 17 55 30 WNW 1010,2 7 33 0,0
22.02.2018 14:00:00 3,1 -2,2 3,4 7,0 9,8 34 18 53 29 WNW 1010,4 8 4 0,0
22.02.2018 13:00:00 2,6 -2,7 3,5 7,0 9,8 36 19 62 33 WNW 1010,7 7 5 0,0
22.02.2018 12:00:00 2,7 -2,4 2,6 7,0 9,8 40 22 58 31 WNW 1010,9 7 0 0,0
22.02.2018 11:00:00 2,3 -1,9 2,4 7,0 9,8 31 17 50 27 WNW 1010,8 7 0 0,0
22.02.2018 10:00:00 2,2 -1,4 2,2 7,1 9,8 32 17 50 27 WNW 1010,8 6 0 0,0
22.02.2018 09:00:00 2,1 -1,5 2,1 7,2 9,8 29 16 48 26 WNW 1010,9 7 0 0,0
22.02.2018 08:00:00 2,3 -1,5 2,1 7,3 9,8 29 16 46 25 W 1010,7 8 0 0,0
22.02.2018 07:00:00 2,3 -1,5 2,1 7,4 9,8 21 12 38 21 WNW 1010,7 9 0 0,0
22.02.2018 06:00:00 2,5 -1,7 2,3 7,6 9,8 23 13 39 21 WNW 1010,6 10 0 0,0
22.02.2018 05:00:00 2,6 -1,6 2,4 7,7 9,8 22 12 40 22 W 1011,0 10 0 0,0
22.02.2018 04:00:00 2,8 -1,8 2,6 7,9 9,8 22 12 37 20 WNW 1011,4 11 0 0,0
22.02.2018 03:00:00 2,9 -1,8 1,8 8,0 9,7 22 12 42 23 WNW 1011,8 12 0 0,0
22.02.2018 02:00:00 2,5 -2,4 1,8 8,3 9,8 24 13 37 20 W 1012,2 14 0 0,0
22.02.2018 01:00:00 3,2 -1,8 2,3 8,5 9,7 23 12 35 19 WNW 1012,2 13 0 0,0
22.02.2018 00:00:00 3,4 -2,0 2,6 8,6 9,8 21 11 29 16 WNW 1012,6 13 0 0,0
21.02.2018 23:00:00 4,5 -1,9 3,8 8,8 9,8 18 10 44 24 NW 1012,8 16 0 0,0
21.02.2018 22:00:00 5,5 -0,4 5,1 9,0 9,7 30 16 47 26 WNW 1012,8 15 0 0,0
21.02.2018 21:00:00 5,8 -0,9 5,2 9,1 9,7 28 15 47 26 WNW 1012,7 18 0 0,0
21.02.2018 20:00:00 5,6 -0,7 5,1 9,3 9,7 29 16 54 29 WNW 1012,4 18 0 0,0
21.02.2018 19:00:00 5,8 -0,7 5,5 9,5 9,7 27 15 49 26 W 1012,6 19 0 0,0
21.02.2018 18:00:00 6,1 -1,6 5,9 9,6 9,7 24 13 44 24 W 1012,0 24 0 0,0
21.02.2018 17:00:00 6,5 -2,2 6,5 9,6 9,7 24 13 40 22 WNW 1011,9 26 2 0,0
21.02.2018 16:00:00 7,1 -1,8 7,4 9,6 9,7 24 13 40 21 NW 1011,9 31 0 0,0
21.02.2018 15:00:00 7,1 -1,8 7,2 9,4 9,7 23 12 49 27 WNW 1012,2 31 0 0,0
21.02.2018 14:00:00 7,3 -1,7 7,6 9,1 9,7 24 13 45 24 NW 1012,4 27 33 0,0
21.02.2018 13:00:00 7,6 0,1 10,1 8,9 9,7 31 17 52 28 WNW 1012,4 20 60 0,0
21.02.2018 12:00:00 7,0 0,0 9,0 8,7 9,7 33 18 54 29 WNW 1012,5 20 60 0,0
21.02.2018 11:00:00 6,3 0,2 8,4 8,6 9,7 30 16 51 28 W 1012,5 31 53 0,0
21.02.2018 10:00:00 6,4 -0,1 6,4 8,7 9,7 29 15 52 28 NW 1012,1 33 60 0,0
21.02.2018 09:00:00 5,2 1,3 4,5 8,8 9,7 23 12 38 21 WNW 1012,4 54 3 0,0
21.02.2018 08:00:00 5,5 0,3 4,9 8,9 9,7 20 11 35 19 W 1012,0 60 0 0,0
21.02.2018 07:00:00 6,3 -2,3 5,5 9,0 9,7 21 11 40 21 NNW 1011,0 60 0 0,0
21.02.2018 06:00:00 6,7 1,0 5,8 9,1 9,7 9 5 33 18 NW 1010,9 60 0 0,0
21.02.2018 05:00:00 7,5 3,5 6,9 9,2 9,7 20 11 32 17 NW 1010,7 60 0 0,0
21.02.2018 04:00:00 8,0 3,8 7,6 9,3 9,7 21 11 37 20 NW 1011,0 60 0 0,0
21.02.2018 03:00:00 8,0 4,9 7,1 9,3 9,7 22 12 32 17 WNW 1011,2 60 0 0,0
21.02.2018 02:00:00 8,3 6,1 8,0 9,4 9,7 20 11 40 22 NW 1012,4 60 0 0,0
21.02.2018 01:00:00 8,7 6,5 8,3 9,5 9,7 26 14 40 21 WNW 1012,9 60 0 0,0
21.02.2018 00:00:00 9,0 6,8 8,5 9,5 9,6 29 15 45 24 WNW 1013,5 60 0 0,0
20.02.2018 23:00:00 9,3 7,2 8,6 9,6 9,6 20 11 34 18 W 1013,9 57 0 0,0
20.02.2018 22:00:00 9,1 6,5 8,5 9,6 9,6 18 10 52 28 W 1014,3 60 0 0,2
20.02.2018 21:00:00 9,6 8,0 8,8 9,6 9,6 30 16 51 27 WNW 1014,0 7 0 0,4
20.02.2018 20:00:00 9,6 8,2 8,9 9,6 9,6 32 17 61 33 WNW 1013,4 18 0 0,0
20.02.2018 19:00:00 9,6 8,0 8,9 9,7 9,6 39 21 59 32 WNW 1012,6 36 0 0,0
20.02.2018 18:00:00 9,3 8,1 9,3 9,6 9,6 34 18 55 30 WNW 1012,8 53 0 0,0
20.02.2018 17:00:00 9,4 8,5 9,4 9,6 9,6 36 20 59 32 WNW 1012,7 20 0 0,4
20.02.2018 16:00:00 9,7 8,9 9,4 9,5 9,6 38 21 59 32 WNW 1013,0 4,3 0 1,4
20.02.2018 15:00:00 9,6 8,7 9,3 9,4 9,6 35 19 55 30 WNW 1013,4 2,8 0 1,4
20.02.2018 14:00:00 9,7 8,6 9,3 9,2 9,6 32 18 56 31 WNW 1013,7 3,6 0 0,2
20.02.2018 13:00:00 10,2 9,0 10,1 9,1 9,6 37 20 56 30 WNW 1013,4 12 0 0,0
20.02.2018 12:00:00 10,4 9,2 9,8 9,1 9,6 33 18 55 30 WNW 1013,4 17 0 0,0
20.02.2018 11:00:00 10,0 9,1 9,3 9,0 9,6 29 16 51 27 WNW 1013,4 23 0 0,0
20.02.2018 10:00:00 9,6 8,7 9,0 9,0 9,5 32 17 50 27 WNW 1013,5 12 0 0,0
20.02.2018 09:00:00 9,4 8,5 8,7 9,1 9,6 29 16 46 25 WNW 1013,8 10 0 0,0
20.02.2018 08:00:00 9,1 8,2 8,4 9,1 9,6 26 14 37 20 WNW 1013,9 15 0 0,4
20.02.2018 07:00:00 8,7 7,9 8,0 9,1 9,6 26 14 44 24 WNW 1013,8 13 0 0,4
20.02.2018 06:00:00 8,5 7,6 7,8 9,2 9,6 29 16 53 29 WNW 1014,2 16 0 0,0
20.02.2018 05:00:00 8,4 7,3 7,7 9,2 9,5 27 15 41 22 WNW 1014,4 20 0 0,0
20.02.2018 04:00:00 8,1 7,2 7,4 9,3 9,5 23 13 44 24 WNW 1014,7 13 0 0,0
20.02.2018 03:00:00 7,8 6,4 7,3 9,4 9,5 22 12 35 19 WNW 1015,4 27 0 0,0
20.02.2018 02:00:00 7,7 6,2 7,4 9,5 9,5 18 10 36 19 W 1015,8 31 0 0,0
20.02.2018 01:00:00 7,8 6,1 7,7 9,6 9,5 20 11 29 16 W 1016,3 23 0 0,0
20.02.2018 00:00:00 8,0 5,8 7,8 9,6 9,5 17 9 30 16 W 1016,5 24 0 0,0
19.02.2018 23:00:00 8,1 5,9 7,7 9,8 9,5 16 9 29 16 W 1016,9 23 0 0,0
19.02.2018 22:00:00 8,1 6,1 7,7 9,9 9,5 14 7 27 14 W 1017,1 22 0 0,0
19.02.2018 21:00:00 8,2 5,8 7,9 10,0 9,5 14 8 35 19 W 1017,3 36 0 0,0
19.02.2018 20:00:00 8,6 5,7 8,4 10,1 9,5 19 11 36 19 W 1017,2 60 0 0,0

tt = temperatuur
td = dauwpunt
tt 5cm = temperatuur 5cm
tt -20cm = temperatuur -20cm
tt -100cm = temperatuur -100cm
ff = windsnelheid
fx = windstoten
dd = windrichting
ppp = luchtdruk
vv = zicht
sd = Zonneschijnduur
rr = neerslag

Weerstations in de omgeving